JF7ELG-13 Weather Reports


Display with metric or nautical units.
time (UTC)temp
F
wind
direction
speed
MPH
gust
MPH
rain 1hr
in
rain 24hr
in
rain mn
in
humidity
%
barometer
mb
20260508204820 58 125 1.0 4.0 0.00 0.51 0.00 60 1001.6
20260508203323 58 121 1.0 5.0 0.00 0.51 0.00 59 1001.4
20260508201822 58 108 1.0 5.0 0.00 0.51 0.00 58 1001.4
20260508200346 58 139 1.0 6.0 0.00 0.51 0.00 59 1001.2
20260508194817 58 113 1.0 5.0 0.00 0.51 0.00 57 1000.6
20260508193325 58 110 1.0 5.0 0.00 0.51 0.00 57 1000.2
20260508191831 58 124 2.0 6.0 0.00 0.51 0.00 57 1000.3
20260508190330 58 107 2.0 5.0 0.00 0.51 0.00 57 1000.4
20260508184828 56 139 0.0 4.0 0.00 0.51 0.00 61 1000.3
20260508183351 54 103 0.0 1.0 0.00 0.51 0.00 65 1000.7
20260508181848 55 94 0.0 2.0 0.00 0.51 0.00 64 1000.8
20260508180351 54 56 0.0 1.0 0.00 0.51 0.00 70 1000.7
20260508174830 53 84 0.0 1.0 0.00 0.51 0.00 77 1000.9
20260508173348 54 79 0.0 0.0 0.00 0.51 0.00 72 1000.5
20260508171816 56 98 0.0 3.0 0.00 0.51 0.00 65 1000.3
20260508170333 54 58 0.0 1.0 0.00 0.51 0.00 76 1000.2
20260508164828 54 110 0.0 0.0 0.00 0.51 0.00 77 1000.4
20260508163329 55 85 0.0 1.0 0.00 0.51 0.00 74 1000.4
20260508161824 54 85 0.0 1.0 0.00 0.51 0.00 85 1000.7
20260508160325 54 110 0.0 0.0 0.00 0.51 0.00 87 1000.6
20260508154820 54 76 0.0 1.0 0.00 0.51 0.00 87 1000.4
20260508153359 54 83 0.0 1.0 0.00 0.51 0.00 87 1000.4
20260508151830 55 98 0.0 1.0 0.00 0.51 0.00 89 1000.4
20260508150330 56 94 0.0 0.0 0.00 0.51 0.00 84 1000.4
20260508144825 57 89 0.0 1.0 0.00 0.51 0.00 82 1000.3
20260508143325 56 113 0.0 1.0 0.04 0.51 0.00 89 1000.6
20260508141821 56 66 0.0 3.0 0.04 0.51 0.00 86 1000.2
20260508140340 58 91 0.0 2.0 0.04 0.51 0.00 85 1000.0
20260508134815 58 90 0.0 2.0 0.04 0.51 0.13 91 999.9
20260508133338 58 77 0.0 1.0 0.00 0.47 0.12 93 1000.2
20260508131830 59 96 0.0 0.0 0.00 0.47 0.12 92 999.6
20260508130334 59 96 0.0 0.0 0.00 0.47 0.12 92 1000.0
20260508124829 59 96 0.0 0.0 0.00 0.47 0.12 93 999.9
20260508123331 60 89 0.0 1.0 0.00 0.47 0.12 95 999.8
20260508121831 61 92 0.0 0.0 0.00 0.47 0.12 95 999.4
20260508120333 61 92 0.0 0.0 0.04 0.47 0.12 95 999.5
20260508114842 62 92 0.0 0.0 0.08 0.47 0.12 95 999.7
20260508113340 62 92 0.0 0.0 0.16 0.47 0.12 95 999.7
20260508111831 63 80 0.0 0.0 0.24 0.47 0.12 95 999.4
20260508110339 63 80 0.0 0.0 0.31 0.43 0.11 95 999.5
20260508104832 63 79 0.0 0.0 0.39 0.39 0.10 94 999.5
20260508103336 63 79 0.0 1.0 0.31 0.31 0.08 94 999.5
20260508101834 63 104 0.0 0.0 0.24 0.24 0.06 93 999.2
20260508100319 64 105 0.0 1.0 0.08 0.08 0.02 92 999.0
20260508094844 64 106 0.0 1.0 0.00 0.00 0.00 91 998.5
20260508093318 65 60 0.0 0.0 0.00 0.00 0.00 91 998.3
20260508091816 65 60 0.0 0.0 0.00 0.00 0.00 91 998.6
20260508090317 65 60 0.0 0.0 0.00 0.00 0.00 91 998.2
20260508084817 65 60 0.0 0.0 0.00 0.00 0.00 90 997.9
20260508083320 66 82 0.0 1.0 0.00 0.00 0.00 89 998.1
20260508081817 66 91 0.0 1.0 0.00 0.00 0.00 88 998.4
20260508080341 66 66 0.0 2.0 0.00 0.00 0.00 88 998.4
20260508074831 66 23 1.0 3.0 0.00 0.00 0.00 85 998.5
20260508073333 69 39 1.0 4.0 0.00 0.00 0.00 77 998.8
20260508071827 71 118 0.0 0.0 0.00 0.00 0.00 72 999.4
20260508070325 71 118 0.0 0.0 0.00 0.00 0.00 71 999.2
20260508064821 72 72 0.0 1.0 0.00 0.00 0.00 64 998.9
20260508063323 72 91 0.0 1.0 0.00 0.00 0.00 62 999.3
20260508061821 73 91 0.0 1.0 0.00 0.00 0.00 58 999.3
20260508060325 73 344 1.0 4.0 0.00 0.00 0.00 55 999.3
20260508054829 73 321 1.0 2.0 0.00 0.00 0.00 53 999.7
20260508053330 73 75 1.0 3.0 0.00 0.00 0.00 53 999.9
20260508051822 72 307 1.0 3.0 0.00 0.00 0.00 55 1000.1
20260508050341 72 70 0.0 3.0 0.00 0.00 0.00 60 1000.7
20260508044834 72 311 1.0 3.0 0.00 0.00 0.00 62 1001.0
20260508043337 72 150 0.0 2.0 0.00 0.00 0.00 64 1001.4
20260508041854 72 311 1.0 2.0 0.00 0.00 0.00 67 1001.7
20260508040337 71 87 1.0 3.0 0.00 0.00 0.00 66 1001.9
20260508034835 70 91 0.0 2.0 0.00 0.00 0.00 70 1001.7
20260508033320 69 284 1.0 4.0 0.00 0.00 0.00 73 1001.5
20260508031816 69 302 1.0 3.0 0.00 0.00 0.00 71 1002.3
20260508030338 69 52 0.0 2.0 0.00 0.00 0.00 71 1002.2
20260508024828 70 60 1.0 2.0 0.00 0.00 0.00 71 1002.1
20260508023335 70 66 0.0 1.0 0.00 0.00 0.00 72 1002.0
20260508021830 70 46 0.0 1.0 0.00 0.00 0.00 71 1002.1
20260508020351 71 289 0.0 3.0 0.00 0.00 0.00 70 1002.7
20260508014823 71 80 0.0 3.0 0.00 0.00 0.00 71 1003.5
20260508013329 72 96 1.0 3.0 0.00 0.00 0.00 67 1003.8
20260508011829 72 340 1.0 4.0 0.00 0.00 0.00 66 1003.7
20260508010351 74 333 1.0 4.0 0.00 0.00 0.00 64 1003.5
20260508004824 74 330 0.0 2.0 0.00 0.00 0.00 65 1003.9
20260508003324 74 308 0.0 2.0 0.00 0.00 0.00 66 1003.9
20260508001816 74 300 1.0 2.0 0.00 0.00 0.00 64 1003.8
20260508000338 73 161 0.0 3.0 0.00 0.00 0.00 66 1004.0
20260507234851 73 82 0.0 2.0 0.00 0.00 0.00 70 1004.1
20260507233331 72 71 1.0 3.0 0.00 0.00 0.00 70 1004.3
20260507231822 71 105 0.0 1.0 0.00 0.00 0.00 74 1004.3
20260507230342 69 326 0.0 1.0 0.00 0.00 0.00 75 1004.4
20260507224825 67 111 0.0 1.0 0.00 0.00 0.00 82 1004.5
20260507223340 64 86 0.0 1.0 0.00 0.00 0.00 89 1004.7
20260507221850 62 93 0.0 0.0 0.00 0.00 0.00 97 1004.6
20260507220328 61 96 0.0 0.0 0.00 0.00 0.00 99 1004.7
20260507214823 60 96 0.0 0.0 0.00 0.00 0.00 99 1004.7
20260507213328 58 96 0.0 0.0 0.00 0.00 0.00 98 1004.8
20260507211816 58 96 0.0 0.0 0.00 0.00 0.00 98 1004.7
20260507210318 57 96 0.0 0.0 0.00 0.00 0.00 99 1004.7